User: anonymous   Login
Location: Unspecified
(40.9833°N, 0.0000°E)
Time: 01:13:15
(UTC+00:00)
Language:

JY1SAT - Orbit

View from above orbital plane
View from above orbital plane
View from above satellite
View from above satellite

Ground track
Ground track

The orbit data is extracted from the following two-line orbital elements,

1 43803U 18099AX  19229.19491539  .00000087  00000-0  13115-4 0  9999
2 43803  97.7392 300.3963 0016454 127.6546 232.6170 14.95293497 38311
Epoch (UTC): 17 August 2019 04:40:40
Eccentricity: 0.0016454
inclination: 97.7392°
perigee height: 570 km
apogee height: 593 km
right ascension of ascending node: 300.3963°
argument of perigee: 127.6546°
revolutions per day: 14.95293497
mean anomaly at epoch: 232.6170°
orbit number at epoch: 3831

The dashed part of the orbit path shows where the satellite is in the earth's shadow,  

DLR